[[{"header":{"parameterUnit":"m.s-1","parameterCategory":1,"la1":30.2991,"la2":30.254,"lo1":-89.0895,"lo2":-89.0444,"dy":0.0017,"dx":0.0017,"nx":28,"ny":28,"refTime":"2024-10-11T21:00:00:Z","depth":0,"parameterNumber":2,"parameterNumberName":"U-component_of_WINDS"},"data":[0,0,0,0,0,0,0,0,0,0,0,0,0,0,0,0,0,0,0,0,0,0,0,0,0,0,0,0,0,0,0,0,0,0,0,0,0,0,0,0,0,0,0,0,0,0,0,0,0,0,0,0,0,0,0,0,0,0,-0.0433,-0.0434,0,-0.0469,-0.0469,-0.047,-0.0475,-0.0475,-0.0475,-0.0475,-0.0514,-0.0515,-0.0517,0,0,0,0,0,0,0,0,0,0,0,0,0,-0.0375,-0.0376,-0.0433,-0.0434,-0.0434,-0.0469,-0.0469,-0.047,-0.0476,-0.0475,-0.0475,-0.0474,-0.0513,-0.0515,-0.0517,0,0,0,0,0,0,0,0,0,0,0,0,0,-0.0405,-0.0377,-0.0433,-0.0441,-0.0442,-0.0469,-0.0469,-0.047,-0.0476,-0.0475,-0.0475,-0.0474,-0.0513,-0.0515,-0.0517,-0.0539,0,0,-0.0523,-0.0524,0,0,0,0,0,0,0,0,-0.0403,-0.0407,-0.044,-0.0441,-0.0442,-0.0467,-0.0463,-0.0493,-0.0476,-0.0463,-0.0475,-0.0474,-0.0499,-0.0502,-0.051,-0.054,-0.0542,-0.0523,-0.0524,-0.0525,-0.0526,0,0,0,0,0,0,0,-0.0401,-0.0405,-0.0447,-0.044,-0.0442,-0.0444,-0.0448,-0.0469,-0.0483,-0.0464,-0.0465,-0.0469,-0.05,-0.0508,-0.0511,-0.0543,-0.0523,-0.0525,-0.0526,-0.0527,-0.0595,-0.0596,0,0,0,0,0,0,-0.0397,-0.0403,-0.0446,-0.0449,-0.0421,-0.0446,-0.045,-0.046,-0.0483,-0.0486,-0.0469,-0.0469,-0.0505,-0.0508,-0.0512,-0.0541,-0.0525,-0.0527,-0.0528,-0.0595,-0.0596,-0.0596,0,0,0,0,0,0,-0.0396,-0.0401,-0.0445,-0.0426,-0.0432,-0.0447,-0.0458,-0.0461,-0.0469,-0.0487,-0.049,-0.0475,-0.0504,-0.0509,-0.0532,-0.0542,-0.0528,-0.053,-0.0594,-0.0595,-0.0596,-0.0597,0,0,0,0,0,0,-0.0394,-0.04,-0.0407,-0.0426,-0.0433,-0.0463,-0.0459,-0.0462,-0.0472,-0.0472,-0.0493,-0.0496,-0.0504,-0.0529,-0.0534,-0.0545,-0.0531,-0.0593,-0.0594,-0.0596,-0.0596,-0.0598,-0.0599,0,0,0,0,0,-0.0392,-0.0406,-0.0408,-0.0413,-0.0442,-0.0464,-0.0468,-0.0476,-0.0473,-0.0481,-0.0493,-0.0495,-0.054,-0.0531,-0.0537,-0.0548,-0.0593,-0.0594,-0.0595,-0.0595,-0.0597,-0.0599,0,0,0,0,0,0,-0.0389,-0.0409,-0.0411,-0.0431,-0.0446,-0.0464,-0.0475,-0.0478,-0.0494,-0.0494,-0.0505,-0.051,-0.0533,-0.0543,-0.0533,-0.0572,-0.0566,-0.0569,-0.0564,-0.0566,-0.0568,-0.0565,-0.0533,0,0,0,0,0,-0.0391,-0.0405,-0.0422,-0.0439,-0.0446,-0.0459,-0.0469,-0.0475,-0.049,-0.0497,-0.051,-0.0526,-0.0544,-0.0556,-0.0573,-0.0597,-0.0603,-0.0608,-0.061,-0.0611,-0.0613,-0.0629,-0.0632,-0.0601,-0.0601,-0.0601,0,0,-0.0394,-0.0407,-0.0416,-0.0439,-0.0451,-0.0467,-0.0464,-0.0481,-0.0494,-0.05,-0.0522,-0.0533,-0.0551,-0.0576,-0.0587,-0.0585,-0.0623,-0.0613,-0.0613,-0.0615,-0.0631,-0.0634,-0.0636,-0.0602,-0.0601,-0.0601,0,0,-0.041,-0.042,-0.0436,-0.0448,-0.0466,-0.0475,-0.0479,-0.0497,-0.0504,-0.0527,-0.0532,-0.0548,-0.0578,-0.0592,-0.0603,-0.0626,-0.0629,-0.0631,-0.0639,-0.0655,-0.0657,-0.066,-0.0669,-0.0673,-0.0633,-0.0633,-0.0633,0,-0.0413,-0.0436,-0.0445,-0.0462,-0.0473,-0.0478,-0.0495,-0.0507,-0.0529,-0.0538,-0.0535,-0.0574,-0.0587,-0.0615,-0.0621,-0.0629,-0.0635,-0.0629,-0.0656,-0.0658,-0.0661,-0.067,-0.0674,-0.0633,-0.0633,-0.0633,-0.0633,0,-0.044,-0.0456,-0.0467,-0.0489,-0.0501,-0.0518,-0.0531,-0.0542,-0.0547,-0.0557,-0.0581,-0.0597,-0.0619,-0.0626,-0.0631,-0.0656,-0.0654,-0.0653,-0.0648,-0.0664,-0.0673,-0.0677,-0.0634,-0.0634,-0.0634,-0.0634,0,0,-0.0454,-0.0481,-0.0485,-0.0495,-0.0516,-0.0529,-0.0548,-0.0568,-0.0579,-0.0595,-0.0612,-0.0638,-0.0638,-0.065,-0.0657,-0.0671,-0.069,-0.0669,-0.0669,-0.0673,-0.0721,-0.0722,-0.0726,-0.0692,-0.0693,-0.0693,-0.072,0,-0.0473,-0.0505,-0.0513,-0.0541,-0.0557,-0.0563,-0.058,-0.0595,-0.0605,-0.0622,-0.0634,-0.0653,-0.065,-0.0658,-0.0671,-0.0685,-0.07,-0.0683,-0.071,-0.0711,-0.0706,-0.073,-0.0731,-0.0755,-0.0723,-0.0724,-0.0724,0,-0.0499,-0.0515,-0.0544,-0.0564,-0.0572,-0.0586,-0.0607,-0.0622,-0.064,-0.0647,-0.0661,-0.0668,-0.0689,-0.0682,-0.0713,-0.0702,-0.0713,-0.0722,-0.0723,-0.0727,-0.0719,-0.0736,-0.0763,-0.0767,-0.073,-0.0729,-0.0729,0,-0.0508,-0.0537,-0.0559,-0.0568,-0.0591,-0.0602,-0.0612,-0.063,-0.0642,-0.0661,-0.0669,-0.069,-0.0702,-0.0719,-0.0731,-0.0725,-0.0762,-0.0756,-0.077,-0.077,-0.0778,-0.0777,-0.0808,-0.0783,-0.0783,-0.0783,-0.0783,0,-0.0529,-0.0547,-0.0564,-0.0577,-0.0598,-0.0609,-0.063,-0.0641,-0.0657,-0.0674,-0.0681,-0.0697,-0.0712,-0.0731,-0.0741,-0.0766,-0.0771,-0.0778,-0.0781,-0.0778,-0.0778,-0.0787,-0.0786,-0.0784,-0.0784,-0.0784,-0.0784,0,-0.0543,-0.0555,-0.0579,-0.0599,-0.0605,-0.062,-0.0638,-0.0653,-0.0663,-0.0685,-0.0691,-0.0708,-0.0731,-0.0745,-0.0773,-0.078,-0.0809,-0.081,-0.0802,-0.0804,-0.0818,-0.0817,-0.0857,-0.0863,-0.0833,-0.0833,-0.0833,0,-0.0556,-0.057,-0.0592,-0.0604,-0.0614,-0.0632,-0.0645,-0.0657,-0.067,-0.0694,-0.0706,-0.0728,-0.0747,-0.0784,-0.08,-0.0823,-0.0826,-0.0838,-0.0829,-0.0827,-0.0828,-0.0827,-0.083,-0.084,-0.084,-0.084,-0.084,0,-0.0578,-0.0584,-0.0601,-0.0621,-0.0636,-0.0653,-0.067,-0.0679,-0.0694,-0.0709,-0.0732,-0.0747,-0.0776,-0.08,-0.0824,-0.0837,-0.0842,-0.0843,-0.0848,-0.0846,-0.0841,-0.0846,-0.0808,-0.0842,-0.0842,-0.0842,-0.0842,-0.0842,-0.0593,-0.0606,-0.0624,-0.0644,-0.0658,-0.0674,-0.0689,-0.0702,-0.0721,-0.0745,-0.0752,-0.0776,-0.0797,-0.083,-0.0843,-0.0864,-0.0862,-0.0869,-0.0871,-0.0872,-0.0874,-0.0837,-0.0868,-0.0868,-0.0868,-0.0868,-0.0868,0,-0.0617,-0.0629,-0.0647,-0.067,-0.0687,-0.0689,-0.0708,-0.0722,-0.0743,-0.0761,-0.078,-0.0808,-0.0831,-0.0849,-0.0874,-0.0887,-0.089,-0.0893,-0.0893,-0.0897,-0.0873,-0.0867,-0.0891,-0.0891,-0.0891,-0.0891,-0.0891,-0.0891,-0.0631,-0.0654,-0.0662,-0.0694,-0.0706,-0.073,-0.0741,-0.0757,-0.0771,-0.0801,-0.082,-0.0832,-0.0851,-0.0877,-0.09,-0.0905,-0.0914,-0.0917,-0.0923,-0.09,-0.0898,-0.0896,-0.089,-0.0918,-0.0919,-0.0945,-0.0945,-0.0945]},{"header":{"parameterUnit":"m.s-1","parameterCategory":1,"la1":30.2991,"la2":30.254,"lo1":-89.0895,"lo2":-89.0444,"dy":0.0017,"dx":0.0017,"nx":28,"ny":28,"refTime":"2024-10-11T21:00:00:Z","depth":0,"parameterNumber":3,"parameterNumberName":"V-component_of_WINDS"},"data":[0,0,0,0,0,0,0,0,0,0,0,0,0,0,0,0,0,0,0,0,0,0,0,0,0,0,0,0,0,0,0,0,0,0,0,0,0,0,0,0,0,0,0,0,0,0,0,0,0,0,0,0,0,0,0,0,0,0,1.9182,1.9181,0,1.9141,1.914,1.914,1.9101,1.9101,1.91,1.91,1.9057,1.9056,1.9056,0,0,0,0,0,0,0,0,0,0,0,0,0,1.9224,1.9223,1.9182,1.9181,1.9181,1.9141,1.914,1.914,1.9102,1.9101,1.91,1.91,1.9057,1.9056,1.9055,0,0,0,0,0,0,0,0,0,0,0,0,0,1.9197,1.9223,1.9182,1.9157,1.9154,1.9141,1.914,1.914,1.9102,1.9101,1.91,1.91,1.9057,1.9056,1.9055,1.9063,0,0,1.9052,1.9052,0,0,0,0,0,0,0,0,1.9198,1.9195,1.9161,1.9159,1.9156,1.9126,1.9139,1.9114,1.9102,1.9122,1.91,1.9099,1.908,1.9077,1.9071,1.9061,1.9059,1.9052,1.9051,1.9051,1.9051,0,0,0,0,0,0,0,1.92,1.9197,1.9166,1.9161,1.9157,1.9147,1.9142,1.9134,1.9105,1.912,1.9117,1.9113,1.9079,1.9072,1.907,1.9059,1.9052,1.9051,1.905,1.905,1.9049,1.905,0,0,0,0,0,0,1.9206,1.9198,1.9167,1.9164,1.9176,1.9147,1.9141,1.9136,1.9105,1.91,1.9113,1.9111,1.9074,1.9071,1.9068,1.9073,1.9051,1.905,1.9049,1.9048,1.9049,1.905,0,0,0,0,0,0,1.9207,1.9204,1.9168,1.9181,1.9175,1.9147,1.9141,1.9135,1.9129,1.91,1.9095,1.9112,1.9074,1.907,1.9064,1.9071,1.9049,1.9048,1.9048,1.9049,1.9049,1.9084,0,0,0,0,0,0,1.9209,1.9204,1.9208,1.9181,1.9175,1.9166,1.9141,1.9135,1.9127,1.9124,1.9098,1.9093,1.9073,1.9066,1.9063,1.9069,1.9048,1.9047,1.9048,1.9049,1.9082,1.9086,1.9089,0,0,0,0,0,1.921,1.922,1.9208,1.9205,1.9179,1.9167,1.9163,1.914,1.9128,1.9131,1.9112,1.9094,1.9071,1.9065,1.9062,1.9068,1.9046,1.9048,1.9049,1.908,1.9085,1.9089,0,0,0,0,0,0,1.9249,1.9216,1.9203,1.9204,1.9188,1.916,1.9163,1.9146,1.9133,1.9131,1.9102,1.9096,1.9093,1.908,1.9075,1.9072,1.9056,1.9057,1.9081,1.9085,1.9089,1.9092,1.9047,0,0,0,0,0,1.9257,1.9251,1.9222,1.9226,1.9219,1.9192,1.9186,1.9169,1.9152,1.9145,1.9126,1.9109,1.9097,1.9091,1.9079,1.908,1.9072,1.9082,1.9086,1.9089,1.9089,1.9086,1.9089,1.9054,1.9054,1.9054,0,0,1.9275,1.9256,1.9254,1.9233,1.9219,1.9211,1.9187,1.9181,1.9175,1.9144,1.9137,1.9122,1.9101,1.9098,1.9096,1.9087,1.9097,1.909,1.9093,1.9092,1.9088,1.9091,1.9094,1.9055,1.9055,1.9055,0,0,1.9303,1.9289,1.9289,1.9275,1.9254,1.9236,1.9236,1.921,1.9198,1.9191,1.9167,1.9159,1.914,1.9125,1.9116,1.9135,1.9117,1.9132,1.9151,1.9148,1.9151,1.9153,1.9158,1.916,1.9133,1.9133,1.9133,0,1.9327,1.9316,1.9291,1.9286,1.9277,1.9248,1.9247,1.9234,1.921,1.9204,1.9194,1.9169,1.9153,1.9145,1.9149,1.9143,1.914,1.9135,1.9152,1.9154,1.9156,1.916,1.9163,1.9135,1.9135,1.9134,1.9134,0,1.9346,1.9339,1.9341,1.9318,1.9309,1.9306,1.9279,1.9273,1.9256,1.9239,1.923,1.9209,1.9191,1.9188,1.9173,1.9177,1.9172,1.9158,1.9141,1.9162,1.9165,1.9167,1.9138,1.9137,1.9136,1.9136,0,0,1.9398,1.936,1.9361,1.9349,1.9323,1.9316,1.931,1.9293,1.9287,1.927,1.9264,1.9248,1.9233,1.9222,1.9204,1.9202,1.9216,1.9187,1.9186,1.9192,1.9216,1.9227,1.9229,1.9204,1.9204,1.9204,1.9218,0,1.942,1.941,1.9386,1.9382,1.9374,1.9345,1.934,1.9322,1.9305,1.9294,1.9275,1.9263,1.9247,1.9239,1.9236,1.9215,1.922,1.9214,1.9196,1.9195,1.9201,1.9231,1.9242,1.9256,1.9219,1.9219,1.9219,0,1.9446,1.943,1.9426,1.9397,1.9393,1.9389,1.9369,1.936,1.9338,1.9326,1.9312,1.9292,1.9282,1.9267,1.9252,1.9249,1.9239,1.9228,1.9228,1.9225,1.9208,1.9227,1.926,1.9262,1.9222,1.9222,1.9221,0,1.9481,1.946,1.9454,1.9445,1.9412,1.9409,1.9395,1.9373,1.9363,1.9346,1.9339,1.9321,1.931,1.9296,1.927,1.9262,1.9258,1.9241,1.9246,1.9246,1.9246,1.9246,1.9277,1.9242,1.9242,1.9242,1.9242,0,1.9508,1.9506,1.9469,1.9465,1.9461,1.9433,1.9429,1.9413,1.9392,1.9383,1.9358,1.935,1.9317,1.9304,1.9284,1.9274,1.927,1.9258,1.9253,1.926,1.9261,1.9253,1.9251,1.9243,1.9242,1.9242,1.9242,0,1.9548,1.9523,1.9514,1.9483,1.9475,1.9474,1.9446,1.944,1.9421,1.941,1.9406,1.9375,1.9359,1.9332,1.9308,1.9294,1.9287,1.9278,1.9294,1.9291,1.9296,1.9295,1.9322,1.9323,1.9289,1.9289,1.929,0,1.9566,1.9564,1.9532,1.9524,1.9511,1.9499,1.9489,1.9461,1.945,1.9424,1.9421,1.9402,1.9386,1.9361,1.9336,1.9316,1.9306,1.9317,1.9303,1.931,1.9304,1.9304,1.9303,1.932,1.932,1.9321,1.9321,0,1.96,1.9588,1.9574,1.9556,1.9544,1.9528,1.951,1.9505,1.9472,1.9462,1.9445,1.9432,1.9407,1.9388,1.9364,1.9348,1.9328,1.9325,1.9325,1.9332,1.9341,1.9334,1.9301,1.9325,1.9324,1.9324,1.9324,1.9324,1.9629,1.9624,1.9601,1.9586,1.9569,1.9553,1.9545,1.9525,1.951,1.9488,1.9471,1.9455,1.943,1.9397,1.9382,1.9367,1.9358,1.9359,1.9358,1.9358,1.936,1.9344,1.9363,1.9363,1.9362,1.9362,1.9362,0,1.966,1.9643,1.963,1.9606,1.9593,1.9576,1.9555,1.9545,1.9531,1.9511,1.9495,1.9474,1.9455,1.9427,1.9406,1.9399,1.9389,1.9394,1.9394,1.939,1.937,1.9372,1.9402,1.9402,1.9402,1.9402,1.9402,1.9402,1.9675,1.9666,1.965,1.9632,1.9614,1.9599,1.9588,1.9572,1.9555,1.9533,1.9517,1.9499,1.9475,1.9451,1.9432,1.9424,1.9417,1.9424,1.9414,1.9395,1.9392,1.9388,1.939,1.9423,1.9423,1.9434,1.9434,1.9434]}]]